Location: Kaarina
(60.4167°N, 22.4167°E)
Time: 21:09:14
(UTC+03:00)

Cosmos 1782 Rocket - Pass Details

Date: 24 August 2019
Orbit: 606 x 633 km, 82.5° (Epoch: 15 September)

Event Time Altitude Azimuth Distance (km) Brightness Sun altitude
Exits shadow 22:06:12 - 164° (SSE) 2,468 6.1 -7.8°
Reaches altitude 10° 22:07:26 10° 160° (SSE) 1,997 5.6 -7.9°
Maximum altitude 22:11:31 38° 93° (E) 958 4.2 -8.3°
Drops below altitude 10° 22:15:36 10° 25° (NNE) 1,995 6.4 -8.6°
Sets 22:17:56 0° 18° (NNE) 2,901 7.3 -8.9°
